| time (UTC) | temp F | wind direction | speed MPH | gust MPH | rain 1hr in | rain 24hr in | rain mn in | humidity % | barometer mb |
| 20260905203346 | 53 | 105 | 0.0 | 2.0 | 0.00 | 0.54 | 0.31 | 96 | 1014.6 |
| 20260905202346 | 53 | 104 | 0.0 | 3.0 | 0.00 | 0.54 | 0.31 | 97 | 1014.4 |
| 20260905201316 | 53 | 103 | 0.0 | 4.0 | 0.00 | 0.54 | 0.31 | 96 | 1014.4 |
| 20260905200316 | 53 | 126 | 0.0 | 3.0 | 0.00 | 0.54 | 0.31 | 97 | 1014.5 |
| 20260905195246 | 53 | 111 | 0.0 | 2.0 | 0.00 | 0.54 | 0.31 | 97 | 1014.3 |
| 20260905194246 | 53 | 103 | 0.0 | 3.0 | 0.00 | 0.54 | 0.31 | 97 | 1014.4 |
| 20260905193246 | 53 | 106 | 0.0 | 6.0 | 0.00 | 0.54 | 0.31 | 97 | 1014.1 |
| 20260905192246 | 53 | 112 | 0.0 | 2.0 | 0.00 | 0.54 | 0.31 | 97 | 1014.0 |
| 20260905191246 | 53 | 111 | 0.0 | 6.0 | 0.00 | 0.54 | 0.31 | 96 | 1013.9 |
| 20260905190246 | 54 | 104 | 1.0 | 6.0 | 0.00 | 0.54 | 0.31 | 96 | 1014.1 |
| 20260905185246 | 54 | 104 | 1.0 | 6.0 | 0.00 | 0.54 | 0.31 | 95 | 1014.1 |
| 20260905184216 | 53 | 97 | 0.0 | 3.0 | 0.00 | 0.54 | 0.31 | 96 | 1013.7 |
| 20260905183146 | 53 | 90 | 0.0 | 3.0 | 0.00 | 0.54 | 0.31 | 96 | 1013.8 |
| 20260905182146 | 54 | 105 | 0.0 | 2.0 | 0.00 | 0.54 | 0.31 | 96 | 1013.8 |
| 20260905181146 | 54 | 107 | 0.0 | 4.0 | 0.00 | 0.54 | 0.31 | 96 | 1013.8 |
| 20260905180116 | 54 | 106 | 0.0 | 3.0 | 0.01 | 0.54 | 0.31 | 97 | 1013.4 |
| 20260905175116 | 54 | 112 | 0.0 | 3.0 | 0.02 | 0.54 | 0.31 | 96 | 1013.5 |
| 20260905174116 | 54 | 100 | 0.0 | 4.0 | 0.05 | 0.54 | 0.31 | 96 | 1013.3 |
| 20260905173046 | 54 | 106 | 0.0 | 3.0 | 0.11 | 0.54 | 0.31 | 96 | 1013.3 |
| 20260905172045 | 55 | 112 | 0.0 | 3.0 | 0.11 | 0.54 | 0.31 | 95 | 1012.9 |
| 20260905171046 | 55 | 111 | 0.0 | 2.0 | 0.12 | 0.54 | 0.31 | 96 | 1013.2 |
| 20260905170046 | 55 | 101 | 0.0 | 4.0 | 0.16 | 0.53 | 0.30 | 95 | 1012.9 |
| 20260905165045 | 55 | 117 | 1.0 | 4.0 | 0.18 | 0.50 | 0.28 | 96 | 1013.1 |
| 20260905164046 | 55 | 98 | 1.0 | 4.0 | 0.21 | 0.57 | 0.25 | 95 | 1013.2 |
| 20260905163046 | 55 | 112 | 0.0 | 3.0 | 0.15 | 0.55 | 0.20 | 95 | 1013.3 |
| 20260905162045 | 56 | 117 | 0.0 | 2.0 | 0.15 | 0.55 | 0.20 | 95 | 1013.0 |
| 20260905161046 | 56 | 113 | 0.0 | 3.0 | 0.12 | 0.53 | 0.17 | 93 | 1012.9 |
| 20260905155045 | 59 | 113 | 2.0 | 11.0 | 0.04 | 0.44 | 0.09 | 84 | 1013.1 |
| 20260905154046 | 63 | 117 | 0.0 | 3.0 | 0.00 | 0.40 | 0.04 | 71 | 1012.5 |
| 20260905153015 | 63 | 98 | 1.0 | 6.0 | 0.00 | 0.40 | 0.04 | 70 | 1012.4 |
| 20260905152016 | 64 | 100 | 2.0 | 8.0 | 0.00 | 0.40 | 0.04 | 68 | 1012.1 |
| 20260905151015 | 64 | 106 | 2.0 | 17.0 | 0.00 | 0.40 | 0.04 | 67 | 1012.2 |
| 20260905150015 | 65 | 116 | 3.0 | 11.0 | 0.00 | 0.40 | 0.04 | 65 | 1012.2 |
| 20260905145017 | 65 | 117 | 2.0 | 10.0 | 0.00 | 0.40 | 0.04 | 65 | 1012.1 |
| 20260905144015 | 64 | 97 | 2.0 | 8.0 | 0.00 | 0.40 | 0.04 | 69 | 1011.9 |
| 20260905143015 | 62 | 109 | 2.0 | 10.0 | 0.00 | 0.40 | 0.04 | 76 | 1011.9 |
| 20260905141945 | 64 | 99 | 3.0 | 11.0 | 0.00 | 0.40 | 0.04 | 71 | 1011.8 |
| 20260905140946 | 66 | 115 | 3.0 | 11.0 | 0.00 | 0.40 | 0.04 | 62 | 1011.5 |
| 20260905135946 | 66 | 102 | 4.0 | 13.0 | 0.00 | 0.40 | 0.04 | 64 | 1011.5 |
| 20260905134945 | 68 | 94 | 3.0 | 10.0 | 0.00 | 0.40 | 0.04 | 59 | 1011.6 |
| 20260905133915 | 68 | 91 | 4.0 | 15.0 | 0.00 | 0.40 | 0.04 | 57 | 1011.6 |
| 20260905132915 | 69 | 102 | 3.0 | 11.0 | 0.00 | 0.40 | 0.04 | 59 | 1011.6 |
| 20260905130915 | 68 | 94 | 2.0 | 10.0 | 0.00 | 0.40 | 0.04 | 62 | 1011.2 |
| 20260905125915 | 68 | 105 | 2.0 | 11.0 | 0.00 | 0.40 | 0.04 | 65 | 1011.2 |
| 20260905124916 | 67 | 106 | 2.0 | 9.0 | 0.00 | 0.40 | 0.04 | 62 | 1011.4 |
| 20260905123915 | 68 | 123 | 3.0 | 11.0 | 0.00 | 0.40 | 0.04 | 60 | 1011.4 |
| 20260905121915 | 68 | 107 | 2.0 | 10.0 | 0.00 | 0.40 | 0.04 | 59 | 1011.6 |
| 20260905120915 | 68 | 103 | 2.0 | 10.0 | 0.00 | 0.40 | 0.04 | 58 | 1011.7 |
| 20260905115845 | 67 | 110 | 2.0 | 8.0 | 0.00 | 0.40 | 0.04 | 58 | 1011.5 |
| 20260905114815 | 68 | 96 | 3.0 | 12.0 | 0.00 | 0.40 | 0.04 | 58 | 1011.3 |
| 20260905113745 | 69 | 113 | 2.0 | 8.0 | 0.00 | 0.40 | 0.04 | 55 | 1011.3 |
| 20260905112715 | 67 | 101 | 2.0 | 8.0 | 0.00 | 0.40 | 0.04 | 59 | 1011.7 |
| 20260905111645 | 67 | 110 | 3.0 | 11.0 | 0.00 | 0.40 | 0.04 | 59 | 1011.6 |
| 20260905110645 | 67 | 101 | 3.0 | 10.0 | 0.00 | 0.40 | 0.04 | 59 | 1011.6 |
| 20260905105646 | 67 | 104 | 2.0 | 9.0 | 0.00 | 0.40 | 0.04 | 60 | 1011.7 |
| 20260905104615 | 65 | 92 | 2.0 | 6.0 | 0.00 | 0.40 | 0.04 | 64 | 1011.5 |
| 20260905103545 | 64 | 103 | 2.0 | 12.0 | 0.00 | 0.40 | 0.04 | 65 | 1011.7 |
| 20260905102515 | 64 | 147 | 2.0 | 8.0 | 0.00 | 0.40 | 0.04 | 64 | 1011.8 |
| 20260905101445 | 64 | 145 | 2.0 | 10.0 | 0.00 | 0.40 | 0.04 | 65 | 1011.6 |
| 20260905100445 | 64 | 99 | 2.0 | 8.0 | 0.00 | 0.40 | 0.04 | 64 | 1011.5 |
| 20260905095345 | 66 | 123 | 3.0 | 17.0 | 0.00 | 0.40 | 0.04 | 61 | 1011.3 |
| 20260905094345 | 65 | 127 | 3.0 | 15.0 | 0.00 | 0.40 | 0.04 | 59 | 1011.4 |
| 20260905093315 | 64 | 107 | 2.0 | 9.0 | 0.00 | 0.40 | 0.04 | 64 | 1011.6 |
| 20260905092315 | 65 | 111 | 3.0 | 13.0 | 0.00 | 0.40 | 0.04 | 63 | 1011.3 |
| 20260905091315 | 66 | 105 | 3.0 | 11.0 | 0.00 | 0.40 | 0.04 | 62 | 1011.1 |
| 20260905090245 | 65 | 99 | 3.0 | 10.0 | 0.00 | 0.40 | 0.04 | 64 | 1011.2 |
| 20260905085245 | 64 | 111 | 3.0 | 12.0 | 0.00 | 0.40 | 0.04 | 66 | 1011.0 |
| 20260905084246 | 63 | 127 | 2.0 | 6.0 | 0.00 | 0.40 | 0.04 | 67 | 1010.8 |
| 20260905083245 | 64 | 132 | 2.0 | 8.0 | 0.00 | 0.40 | 0.04 | 67 | 1011.0 |
| 20260905082215 | 64 | 108 | 2.0 | 10.0 | 0.00 | 0.40 | 0.04 | 65 | 1010.7 |
| 20260905081215 | 63 | 108 | 2.0 | 10.0 | 0.00 | 0.40 | 0.04 | 67 | 1010.6 |
| 20260905080215 | 63 | 127 | 4.0 | 15.0 | 0.00 | 0.40 | 0.04 | 66 | 1010.4 |
| 20260905075215 | 62 | 122 | 4.0 | 13.0 | 0.00 | 0.40 | 0.04 | 68 | 1010.4 |
| 20260905074216 | 63 | 110 | 4.0 | 17.0 | 0.00 | 0.40 | 0.04 | 68 | 1010.2 |
| 20260905073215 | 62 | 112 | 3.0 | 17.0 | 0.00 | 0.40 | 0.04 | 71 | 1010.1 |
| 20260905072215 | 63 | 131 | 2.0 | 9.0 | 0.00 | 0.40 | 0.04 | 72 | 1010.0 |
| 20260905071145 | 62 | 114 | 2.0 | 10.0 | 0.00 | 0.40 | 0.04 | 74 | 1009.9 |
| 20260905070145 | 62 | 115 | 3.0 | 10.0 | 0.00 | 0.40 | 0.04 | 76 | 1009.9 |
| 20260905065145 | 61 | 103 | 2.0 | 10.0 | 0.00 | 0.40 | 0.04 | 77 | 1009.7 |
| 20260905064145 | 61 | 107 | 2.0 | 8.0 | 0.00 | 0.40 | 0.04 | 77 | 1009.5 |
| 20260905063145 | 61 | 96 | 2.0 | 10.0 | 0.00 | 0.40 | 0.04 | 79 | 1009.3 |
| 20260905062145 | 61 | 90 | 2.0 | 9.0 | 0.00 | 0.40 | 0.04 | 78 | 1009.4 |
| 20260905061145 | 60 | 106 | 1.0 | 6.0 | 0.00 | 0.40 | 0.04 | 80 | 1009.2 |
| 20260905060145 | 60 | 122 | 2.0 | 8.0 | 0.00 | 0.40 | 0.04 | 82 | 1009.3 |
| 20260905055145 | 59 | 98 | 3.0 | 11.0 | 0.00 | 0.40 | 0.04 | 83 | 1009.1 |
| 20260905054145 | 59 | 95 | 2.0 | 8.0 | 0.00 | 0.40 | 0.04 | 84 | 1009.1 |
| 20260905053115 | 59 | 111 | 1.0 | 6.0 | 0.00 | 0.40 | 0.04 | 84 | 1009.0 |
| 20260905052115 | 58 | 122 | 1.0 | 9.0 | 0.00 | 0.40 | 0.04 | 85 | 1008.8 |
| 20260905051045 | 57 | 107 | 1.0 | 8.0 | 0.00 | 0.40 | 0.04 | 86 | 1008.8 |
| 20260905050045 | 57 | 125 | 1.0 | 8.0 | 0.00 | 0.40 | 0.04 | 87 | 1008.8 |
| 20260905045045 | 57 | 121 | 1.0 | 6.0 | 0.00 | 0.40 | 0.04 | 86 | 1008.6 |
| 20260905043045 | 56 | 113 | 1.0 | 6.0 | 0.00 | 0.40 | 0.04 | 88 | 1008.1 |
| 20260905042045 | 56 | 108 | 1.0 | 6.0 | 0.00 | 0.40 | 0.04 | 87 | 1008.2 |
| 20260905041045 | 56 | 105 | 1.0 | 6.0 | 0.00 | 0.40 | 0.04 | 87 | 1007.9 |
| 20260905035045 | 56 | 111 | 1.0 | 6.0 | 0.00 | 0.40 | 0.04 | 87 | 1007.5 |
| 20260905034046 | 56 | 117 | 1.0 | 6.0 | 0.00 | 0.40 | 0.04 | 87 | 1007.8 |
| 20260905033045 | 57 | 102 | 1.0 | 4.0 | 0.00 | 0.40 | 0.04 | 86 | 1007.8 |
| 20260905032045 | 57 | 105 | 2.0 | 8.0 | 0.00 | 0.40 | 0.04 | 86 | 1007.5 |
| 20260905031015 | 57 | 118 | 1.0 | 9.0 | 0.00 | 0.40 | 0.04 | 86 | 1007.9 |
| 20260905030015 | 57 | 111 | 1.0 | 6.0 | 0.00 | 0.40 | 0.04 | 86 | 1007.6 |
| 20260905025015 | 57 | 104 | 1.0 | 8.0 | 0.00 | 0.40 | 0.04 | 85 | 1007.5 |
| 20260905023945 | 57 | 103 | 2.0 | 9.0 | 0.00 | 0.40 | 0.04 | 86 | 1007.4 |
| 20260905022945 | 57 | 105 | 2.0 | 11.0 | 0.00 | 0.40 | 0.04 | 87 | 1007.4 |
| 20260905021915 | 57 | 106 | 1.0 | 6.0 | 0.00 | 0.40 | 0.04 | 89 | 1007.3 |
| 20260905020915 | 57 | 125 | 1.0 | 3.0 | 0.00 | 0.40 | 0.04 | 88 | 1006.8 |
| 20260905015845 | 58 | 121 | 1.0 | 6.0 | 0.00 | 0.40 | 0.04 | 86 | 1006.8 |
| 20260905014845 | 58 | 114 | 1.0 | 9.0 | 0.00 | 0.40 | 0.04 | 83 | 1006.8 |
| 20260905013845 | 58 | 125 | 1.0 | 6.0 | 0.00 | 0.40 | 0.04 | 82 | 1006.4 |
| 20260905012815 | 59 | 128 | 2.0 | 8.0 | 0.00 | 0.40 | 0.04 | 82 | 1006.6 |
| 20260905011815 | 59 | 115 | 2.0 | 9.0 | 0.00 | 0.40 | 0.04 | 82 | 1006.8 |
| 20260905010745 | 59 | 119 | 2.0 | 11.0 | 0.00 | 0.40 | 0.04 | 82 | 1006.6 |
| 20260905005745 | 59 | 122 | 2.0 | 11.0 | 0.00 | 0.40 | 0.04 | 83 | 1006.3 |
| 20260905004745 | 59 | 127 | 1.0 | 6.0 | 0.00 | 0.40 | 0.04 | 86 | 1006.1 |
| 20260905003716 | 59 | 146 | 1.0 | 6.0 | 0.00 | 0.40 | 0.04 | 88 | 1005.7 |
| 20260905002645 | 59 | 109 | 2.0 | 9.0 | 0.00 | 0.40 | 0.04 | 86 | 1006.0 |
| 20260905001645 | 59 | 113 | 1.0 | 9.0 | 0.00 | 0.40 | 0.04 | 87 | 1005.8 |
| 20260905000615 | 59 | 122 | 1.0 | 6.0 | 0.00 | 0.40 | 0.04 | 87 | 1005.6 |
| 20260904235545 | 60 | 118 | 2.0 | 8.0 | 0.00 | 0.40 | 0.04 | 90 | 1005.1 |
| 20260904234545 | 59 | 152 | 1.0 | 4.0 | 0.00 | 0.40 | 0.04 | 94 | 1004.9 |
| 20260904233545 | 60 | 107 | 1.0 | 3.0 | 0.00 | 0.40 | 0.04 | 94 | 1005.0 |
| 20260904232545 | 59 | 103 | 0.0 | 4.0 | 0.00 | 0.40 | 0.04 | 94 | 1005.0 |
| 20260904231545 | 60 | 105 | 1.0 | 6.0 | 0.00 | 0.40 | 0.04 | 93 | 1004.9 |
| 20260904230545 | 60 | 137 | 2.0 | 11.0 | 0.01 | 0.40 | 0.04 | 92 | 1004.6 |
| 20260904225545 | 61 | 161 | 2.0 | 11.0 | 0.09 | 0.40 | 0.04 | 91 | 1004.5 |
| 20260904224545 | 61 | 111 | 2.0 | 6.0 | 0.16 | 0.40 | 0.04 | 94 | 1004.5 |
| 20260904223545 | 61 | 107 | 2.0 | 6.0 | 0.25 | 0.40 | 0.04 | 95 | 1004.5 |
| 20260904222545 | 61 | 113 | 1.0 | 6.0 | 0.27 | 0.40 | 0.04 | 96 | 1004.2 |
| 20260904221545 | 61 | 115 | 2.0 | 10.0 | 0.27 | 0.40 | 0.04 | 95 | 1004.0 |
| 20260904220545 | 61 | 111 | 2.0 | 9.0 | 0.25 | 0.38 | 0.03 | 96 | 1003.9 |
| 20260904215545 | 61 | 99 | 1.0 | 9.0 | 0.17 | 0.30 | 0.30 | 96 | 1003.6 |
| 20260904214545 | 62 | 102 | 0.0 | 3.0 | 0.10 | 0.23 | 0.23 | 96 | 1003.6 |
| 20260904213545 | 62 | 112 | 0.0 | 2.0 | 0.01 | 0.14 | 0.14 | 93 | 1003.2 |
| 20260904212545 | 62 | 112 | 0.0 | 2.0 | 0.00 | 0.12 | 0.12 | 93 | 1003.3 |
| 20260904211545 | 62 | 111 | 0.0 | 2.0 | 0.00 | 0.12 | 0.12 | 93 | 1003.3 |
| 20260904210545 | 61 | 112 | 0.0 | 2.0 | 0.00 | 0.12 | 0.12 | 93 | 1003.2 |
| 20260904205545 | 62 | 112 | 0.0 | 3.0 | 0.00 | 0.14 | 0.12 | 93 | 1003.4 |
| 20260904204545 | 62 | 115 | 0.0 | 3.0 | 0.00 | 0.14 | 0.12 | 92 | 1003.6 |